Tracking 32579 objects as of 16-Dec-2025
HD Live streaming from Space Station
objects crossing your sky now

STARLINK-3173

Track STARLINK-3173 now!
10-day predictions
STARLINK-3173 is classified as:


NORAD ID: 51111
Int'l Code: 2022-005H
Perigee: 545.8 km
Apogee: 547.9 km
Inclination: 53.2 °
Period: 95.4 minutes
Semi major axis: 6917 km
RCS: Unknown
Launch date: January 19, 2022
Source: United States (US)
Launch site: AIR FORCE EASTERN TEST RANGE (AFETR)
Your satellite tracking list
Your tracking list is empty




NASA's NSSDC Master Catalog

Two Line Element Set (TLE):
1 51111U 22005H   25349.61832146  .00000178  00000-0  29255-4 0  9995
2 51111  53.2195 306.5329 0001515  88.8336 271.2829 15.08835575216188
Source of the keplerian elements: AFSPC